• în România
  • Lista ţărilor
  • Pe 7 zile
  • Temperatura apei
  • Hartă satelitară
  • Meteo pe hartă
  • Widget-uri
  • user-avatar
    Intrare

    Meteo pe oră la Jimbolia

    Astăzi, 19 Iulie, Joi

    Timp Temperatura Precipitaţii Vânt Presiune Umiditate
    00:00 +19°C° 0 mm 4 m/s 749 mmHg 87%
    01:00 +19°C° 0 mm 3 m/s 749 mmHg 91%
    02:00 +19°C° 0 mm 3 m/s 749 mmHg 92%
    03:00 +19°C° 0 mm 3 m/s 749 mmHg 92%
    04:00 +19°C° 0 mm 3 m/s 749 mmHg 93%
    05:00 +20°C° 0,1 mm 4 m/s 749 mmHg 90%
    06:00 +20°C° 0,1 mm 4 m/s 750 mmHg 88%
    07:00 +21°C° 0 mm 4 m/s 750 mmHg 85%
    08:00 +22°C° 0,1 mm 4 m/s 750 mmHg 82%
    09:00 +23°C° 0,1 mm 4 m/s 750 mmHg 79%
    10:00 +25°C° 0,1 mm 4 m/s 750 mmHg 76%
    11:00 +26°C° 1 mm 4 m/s 750 mmHg 74%
    12:00 +27°C° 1 mm 4 m/s 750 mmHg 71%
    13:00 +28°C° 1 mm 3 m/s 750 mmHg 69%
    14:00 +28°C° 1,8 mm 4 m/s 750 mmHg 68%
    15:00 +28°C° 1,8 mm 4 m/s 750 mmHg 68%
    16:00 +28°C° 1,8 mm 4 m/s 750 mmHg 67%
    17:00 +27°C° 0,6 mm 3 m/s 750 mmHg 71%
    18:00 +26°C° 0,6 mm 3 m/s 750 mmHg 75%
    19:00 +25°C° 0,6 mm 2 m/s 750 mmHg 79%
    20:00 +24°C° 0,3 mm 3 m/s 750 mmHg 81%
    21:00 +24°C° 0,3 mm 3 m/s 751 mmHg 82%
    22:00 +22°C° 0,3 mm 3 m/s 751 mmHg 83%
    23:00 +21°C° 0,3 mm 3 m/s 751 mmHg 84%

    Mâine, 20 Iulie, Vineri

    Timp Temperatura Precipitaţii Vânt Presiune Umiditate
    00:00 +21°C° 0,3 mm 3 m/s 751 mmHg 86%
    01:00 +20°C° 0,3 mm 2 m/s 751 mmHg 87%
    02:00 +20°C° 0,1 mm 2 m/s 751 mmHg 88%
    03:00 +20°C° 0,1 mm 2 m/s 751 mmHg 89%
    04:00 +19°C° 0,1 mm 3 m/s 751 mmHg 90%
    05:00 +20°C° 0 mm 3 m/s 752 mmHg 86%
    06:00 +21°C° 0 mm 3 m/s 752 mmHg 83%
    07:00 +22°C° 0 mm 3 m/s 752 mmHg 80%
    08:00 +25°C° 0,2 mm 3 m/s 752 mmHg 74%
    09:00 +26°C° 0,2 mm 3 m/s 752 mmHg 68%
    10:00 +28°C° 0,2 mm 3 m/s 752 mmHg 61%
    11:00 +29°C° 0,3 mm 4 m/s 752 mmHg 59%
    12:00 +29°C° 0,3 mm 4 m/s 752 mmHg 57%
    13:00 +30°C° 0,3 mm 4 m/s 751 mmHg 54%
    14:00 +30°C° 0,2 mm 4 m/s 751 mmHg 55%
    15:00 +30°C° 0,2 mm 4 m/s 751 mmHg 55%
    16:00 +30°C° 0,2 mm 4 m/s 751 mmHg 56%
    17:00 +29°C° 0,4 mm 4 m/s 751 mmHg 61%
    18:00 +27°C° 0,4 mm 3 m/s 751 mmHg 66%
    19:00 +26°C° 0,4 mm 2 m/s 751 mmHg 71%
    20:00 +25°C° 0 mm 2 m/s 751 mmHg 74%
    21:00 +24°C° 0 mm 2 m/s 752 mmHg 77%
    22:00 +23°C° 0 mm 2 m/s 752 mmHg 80%
    23:00 +23°C° 0 mm 1 m/s 752 mmHg 82%

    Poimâine, 21 Iulie, Sâmbătă

    Timp Temperatura Precipitaţii Vânt Presiune Umiditate
    00:00 +22°C° 0 mm 1 m/s 752 mmHg 84%
    01:00 +22°C° 0 mm 1 m/s 752 mmHg 86%
    02:00 +21°C° 0 mm 1 m/s 752 mmHg 87%
    03:00 +21°C° 0 mm 1 m/s 752 mmHg 88%
    04:00 +21°C° 0 mm 1 m/s 752 mmHg 89%
    05:00 +22°C° 0 mm 1 m/s 752 mmHg 85%
    06:00 +24°C° 0 mm 1 m/s 752 mmHg 80%
    07:00 +25°C° 0 mm 1 m/s 752 mmHg 75%
    08:00 +26°C° 0 mm 1 m/s 752 mmHg 69%
    09:00 +28°C° 0 mm 1 m/s 752 mmHg 62%
    10:00 +30°C° 0 mm 1 m/s 752 mmHg 56%
    11:00 +30°C° 0 mm 1 m/s 752 mmHg 52%
    12:00 +31°C° 0 mm 1 m/s 752 mmHg 48%
    13:00 +32°C° 0 mm 1 m/s 751 mmHg 44%
    14:00 +32°C° 0 mm 1 m/s 751 mmHg 44%
    15:00 +32°C° 0 mm 1 m/s 751 mmHg 44%
    16:00 +32°C° 0 mm 1 m/s 750 mmHg 44%
    17:00 +31°C° 0 mm 1 m/s 750 mmHg 48%
    18:00 +29°C° 0 mm 1 m/s 750 mmHg 53%
    19:00 +28°C° 0 mm 1 m/s 750 mmHg 58%
    20:00 +27°C° 0,1 mm 2 m/s 750 mmHg 61%
    21:00 +26°C° 0,1 mm 2 m/s 750 mmHg 64%
    22:00 +25°C° 0,1 mm 3 m/s 751 mmHg 67%
    23:00 +24°C° 1,1 mm 2 m/s 751 mmHg 71%

    22 Iulie, Duminică

    Timp Temperatura Precipitaţii Vânt Presiune Umiditate
    00:00 +23°C° 1,1 mm 2 m/s 750 mmHg 76%
    01:00 +23°C° 1,1 mm 1 m/s 750 mmHg 80%
    02:00 +22°C° 0,4 mm 1 m/s 750 mmHg 82%
    03:00 +21°C° 0,4 mm 2 m/s 750 mmHg 84%
    04:00 +21°C° 0,4 mm 2 m/s 750 mmHg 86%
    05:00 +22°C° 0,2 mm 3 m/s 750 mmHg 83%
    06:00 +24°C° 0,2 mm 3 m/s 750 mmHg 80%
    07:00 +24°C° 0,2 mm 3 m/s 750 mmHg 77%
    08:00 +26°C° 0 mm 3 m/s 750 mmHg 71%
    09:00 +28°C° 0 mm 3 m/s 750 mmHg 64%
    10:00 +30°C° 0 mm 3 m/s 749 mmHg 57%
    11:00 +31°C° 0 mm 3 m/s 749 mmHg 53%
    12:00 +33°C° 0 mm 3 m/s 749 mmHg 50%
    13:00 +34°C° 0 mm 4 m/s 748 mmHg 46%
    14:00 +34°C° 0 mm 3 m/s 748 mmHg 46%
    15:00 +34°C° 0 mm 3 m/s 748 mmHg 46%
    16:00 +34°C° 0 mm 3 m/s 748 mmHg 47%
    17:00 +31°C° 0,1 mm 3 m/s 748 mmHg 54%
    18:00 +29°C° 0,1 mm 3 m/s 747 mmHg 60%
    19:00 +27°C° 0,1 mm 3 m/s 747 mmHg 67%
    20:00 +26°C° 1,9 mm 2 m/s 747 mmHg 73%
    21:00 +24°C° 1,9 mm 2 m/s 748 mmHg 80%
    22:00 +23°C° 1,9 mm 2 m/s 748 mmHg 86%
    23:00 +23°C° 0,1 mm 2 m/s 748 mmHg 87%

    23 Iulie, Luni

    Timp Temperatura Precipitaţii Vânt Presiune Umiditate
    00:00 +21°C° 0,1 mm 2 m/s 747 mmHg 88%
    01:00 +22°C° 0,1 mm 1 m/s 747 mmHg 89%
    02:00 +20°C° 0,2 mm 2 m/s 747 mmHg 90%
    03:00 +20°C° 0,2 mm 2 m/s 747 mmHg 91%
    04:00 +20°C° 0,2 mm 2 m/s 747 mmHg 91%
    05:00 +20°C° 0,2 mm 2 m/s 747 mmHg 89%
    06:00 +21°C° 0,2 mm 2 m/s 747 mmHg 86%
    07:00 +22°C° 0,2 mm 3 m/s 747 mmHg 84%
    08:00 +24°C° 0,5 mm 3 m/s 747 mmHg 80%
    09:00 +25°C° 0,5 mm 2 m/s 747 mmHg 76%
    10:00 +26°C° 0,5 mm 2 m/s 747 mmHg 73%
    11:00 +26°C° 0,8 mm 2 m/s 747 mmHg 70%
    12:00 +27°C° 0,8 mm 3 m/s 747 mmHg 68%
    13:00 +27°C° 0,8 mm 3 m/s 747 mmHg 66%
    14:00 +27°C° 1,4 mm 3 m/s 747 mmHg 67%
    15:00 +27°C° 1,4 mm 3 m/s 746 mmHg 68%
    16:00 +27°C° 1,4 mm 2 m/s 746 mmHg 69%
    17:00 +26°C° 1,4 mm 3 m/s 747 mmHg 74%
    18:00 +25°C° 1,4 mm 3 m/s 747 mmHg 78%
    19:00 +24°C° 1,4 mm 3 m/s 747 mmHg 83%
    20:00 +22°C° 0,4 mm 3 m/s 747 mmHg 85%
    21:00 +22°C° 0,4 mm 3 m/s 747 mmHg 87%
    22:00 +21°C° 0,4 mm 3 m/s 747 mmHg 89%
    23:00 +21°C° 0,4 mm 3 m/s 747 mmHg 90%

    24 Iulie, Marţi

    Timp Temperatura Precipitaţii Vânt Presiune Umiditate
    00:00 +20°C° 0,4 mm 3 m/s 747 mmHg 91%
    01:00 +20°C° 0,4 mm 3 m/s 747 mmHg 93%
    02:00 +20°C° 0,2 mm 3 m/s 748 mmHg 93%
    03:00 +20°C° 0,2 mm 3 m/s 748 mmHg 94%
    04:00 +19°C° 0,2 mm 3 m/s 748 mmHg 94%
    05:00 +20°C° 0 mm 3 m/s 749 mmHg 91%
    06:00 +21°C° 0 mm 3 m/s 749 mmHg 89%
    07:00 +22°C° 0 mm 3 m/s 749 mmHg 86%
    08:00 +24°C° 0 mm 3 m/s 749 mmHg 80%
    09:00 +26°C° 0 mm 3 m/s 750 mmHg 73%
    10:00 +27°C° 0 mm 3 m/s 750 mmHg 67%
    11:00 +28°C° 0,5 mm 3 m/s 750 mmHg 65%
    12:00 +29°C° 0,5 mm 3 m/s 750 mmHg 62%
    13:00 +30°C° 0,5 mm 3 m/s 750 mmHg 60%
    14:00 +30°C° 1,3 mm 3 m/s 750 mmHg 61%
    15:00 +29°C° 1,3 mm 3 m/s 749 mmHg 63%
    16:00 +29°C° 1,3 mm 4 m/s 749 mmHg 65%
    17:00 +28°C° 0,7 mm 3 m/s 750 mmHg 70%
    18:00 +27°C° 0,7 mm 3 m/s 750 mmHg 74%
    19:00 +25°C° 0,7 mm 2 m/s 750 mmHg 79%
    20:00 +25°C° 0,1 mm 2 m/s 750 mmHg 81%
    21:00 +24°C° 0,1 mm 2 m/s 750 mmHg 83%
    22:00 +23°C° 0,1 mm 2 m/s 751 mmHg 85%
    23:00 +23°C° 0 mm 2 m/s 751 mmHg 86%
    Arată mai mult